Location: Apple Hill Campground
(44.2915°N, 71.6726°W)
Time: 17:09:50
(UTC+00:00)

Envisat - Pass Details

Date: 12 October 2024
Orbit: 761 x 763 km, 98.3° (Epoch: 07 November)

Event Time Altitude Azimuth Distance (km) Brightness Sun altitude
Rises 07:06:21 0° 23° (NNE) 3,235 6.9 -40.5°
Reaches altitude 10° 07:08:57 10° 35° (NE) 2,304 6.1 -40.1°
Enters shadow 07:10:48 19° 50° (NE) 1,746 5.4 -39.8°
